Orbital Elements at Epoch 2459200.5 (2020-Dec-17.0) TDB
Reference: JPL 13 (heliocentric ecliptic J2000)
Element | Value | Uncertainty (1-sigma) | Units |
e | .1523805065045136 | 5.0472e-08 | |
a | 3.114253759817724 | 2.8193e-08 | au |
q | 2.639702194513114 | 1.5625e-07 | au |
i | 2.659833446987157 | 6.7404e-06 | deg |
node | 43.49707842668577 | 0.00011555 | deg |
peri | 39.90935529195431 | 0.00011816 | deg |
M | 195.8700846772699 | 2.8677e-05 | deg |
tp | 2460115.697168293161 (2023-Jun-20.19716829) | 0.00016901 | TDB |
period | 2007.379215042524 5.50 | 2.7259e-05 7.463e-08 | d yr |
n | .1793383120151385 | 2.4353e-09 | deg/d |
Q | 3.588805325122335 | 3.2489e-08 | au |
|
| | Orbit Determination Parameters
Additional Information
|